Location: Exeidioux
(45.6312°N, 1.6819°E)
Time: 17:16:45
(UTC+00:00)

Meteor 2-4 Rocket - Pass Details

Date: 03 March 2021
Orbit: 799 x 908 km, 81.2° (Epoch: 11 April)

Event Time Altitude Azimuth Distance (km) Brightness Sun altitude
Rises 18:45:52 0° 351° (N) 3,488 7.1 -11.8°
Reaches altitude 10° 18:48:20 10° 355° (N) 2,559 6.3 -12.2°
Maximum altitude 18:54:08 62° 76° (ENE) 1,011 3.8 -13.2°
Drops below altitude 10° 18:59:58 10° 157° (SSE) 2,583 6.0 -14.2°
Sets 19:02:28 0° 161° (SSE) 3,522 6.7 -14.7°
